Time,TemperatureF,DewpointF,PressureIn,WindDirection,WindDirectionDegrees,WindSpeedMPH,WindSpeedGustMPH,Humidity,HourlyPrecipIn,Conditions,Clouds,dailyrainin,SoftwareType,DateUTC
2014-09-23 00:24:00,47.0,44.0,30.26,ENE,63,0.0,0.0,88,0.00,,,0.00,,2014-09-23 04:24:00,
2014-09-23 00:53:00,47.0,44.0,30.27,ENE,64,0.0,0.0,88,0.00,,,0.00,,2014-09-23 04:53:00,
2014-09-23 01:22:00,46.0,43.0,30.26,ENE,63,0.0,0.0,88,0.00,,,0.00,,2014-09-23 05:22:00,
2014-09-23 01:53:00,45.0,42.0,30.27,ENE,64,0.0,0.0,89,0.00,,,0.00,,2014-09-23 05:53:00,
2014-09-23 02:22:00,45.0,42.0,30.27,ENE,65,0.0,0.0,89,0.00,,,0.00,,2014-09-23 06:22:00,
2014-09-23 02:52:00,44.0,41.0,30.27,ENE,65,0.0,0.0,89,0.00,,,0.00,,2014-09-23 06:52:00,
2014-09-23 03:22:00,44.0,41.0,30.27,ENE,65,0.0,0.0,89,0.00,,,0.00,,2014-09-23 07:22:00,
2014-09-23 03:55:00,43.0,40.0,30.27,ENE,65,0.0,0.0,89,0.00,,,0.00,,2014-09-23 07:55:00,
2014-09-23 04:12:00,43.0,40.0,30.27,ENE,65,0.0,0.0,89,0.00,,,0.00,,2014-09-23 08:12:00,
2014-09-23 04:23:00,43.0,40.0,30.27,ENE,65,0.0,0.0,89,0.00,,,0.00,,2014-09-23 08:23:00,
2014-09-23 04:52:00,43.0,40.0,30.27,ENE,64,0.0,0.0,89,0.00,,,0.00,,2014-09-23 08:52:00,
2014-09-23 05:23:00,42.0,39.0,30.28,ENE,65,0.0,0.0,89,0.00,,,0.00,,2014-09-23 09:23:00,
2014-09-23 05:54:00,42.0,39.0,30.28,ENE,65,0.0,0.0,89,0.00,,,0.00,,2014-09-23 09:54:00,
2014-09-23 06:23:00,42.0,39.0,30.29,ENE,65,0.0,0.0,89,0.00,,,0.00,,2014-09-23 10:23:00,
2014-09-23 06:53:00,42.0,39.0,30.30,ENE,66,0.0,0.0,89,0.00,,,0.00,,2014-09-23 10:53:00,
2014-09-23 07:22:00,41.0,38.0,30.31,ENE,66,0.0,0.0,89,0.00,,,0.00,,2014-09-23 11:22:00,
2014-09-23 07:53:00,42.0,39.0,30.31,East,83,0.0,0.0,89,0.00,,,0.00,,2014-09-23 11:53:00,
2014-09-23 08:22:00,42.0,39.0,30.31,East,84,0.0,0.0,89,0.00,,,0.00,,2014-09-23 12:22:00,
2014-09-23 08:52:00,44.0,41.0,30.32,East,85,0.0,0.0,89,0.00,,,0.00,,2014-09-23 12:52:00,
2014-09-23 09:22:00,50.0,46.0,30.33,SSE,159,1.0,4.0,85,0.00,,,0.00,,2014-09-23 13:22:00,
2014-09-23 09:53:00,55.0,49.0,30.34,SE,142,0.0,2.0,79,0.00,,,0.00,,2014-09-23 13:53:00,
2014-09-23 10:23:00,58.0,49.0,30.34,SSW,211,1.0,4.0,71,0.00,,,0.00,,2014-09-23 14:23:00,
2014-09-23 10:52:00,62.0,49.0,30.34,SSE,159,0.0,2.0,63,0.00,,,0.00,,2014-09-23 14:52:00,
2014-09-23 11:02:00,62.0,49.0,30.34,SSE,159,0.0,2.0,63,0.00,,,0.00,,2014-09-23 15:02:00,
2014-09-23 11:23:00,63.0,48.0,30.35,SSE,153,0.0,3.0,59,0.00,,,0.00,,2014-09-23 15:23:00,
2014-09-23 11:54:00,65.0,48.0,30.34,NNW,328,1.0,4.0,55,0.00,,,0.00,,2014-09-23 15:54:00,
2014-09-23 12:24:00,65.0,48.0,30.34,NW,321,1.0,6.0,55,0.00,,,0.00,,2014-09-23 16:24:00,
2014-09-23 12:53:00,68.0,49.0,30.34,ESE,117,0.0,7.0,51,0.00,,,0.00,,2014-09-23 16:53:00,
2014-09-23 13:24:00,68.0,49.0,30.33,NW,304,1.0,7.0,51,0.00,,,0.00,,2014-09-23 17:24:00,
2014-09-23 13:54:00,70.0,48.0,30.32,SW,232,1.0,4.0,46,0.00,,,0.00,,2014-09-23 17:54:00,
2014-09-23 14:22:00,70.0,48.0,30.31,NNE,30,1.0,4.0,45,0.00,,,0.00,,2014-09-23 18:22:00,
2014-09-23 14:52:00,71.0,48.0,30.30,ENE,78,1.0,5.0,44,0.00,,,0.00,,2014-09-23 18:52:00,
2014-09-23 15:22:00,71.0,48.0,30.29,ESE,104,2.0,6.0,44,0.00,,,0.00,,2014-09-23 19:22:00,
2014-09-23 15:53:00,71.0,49.0,30.28,NNE,25,1.0,5.0,45,0.00,,,0.00,,2014-09-23 19:53:00,
2014-09-23 16:22:00,70.0,48.0,30.28,NE,46,0.0,2.0,45,0.00,,,0.00,,2014-09-23 20:22:00,
2014-09-23 16:53:00,70.0,48.0,30.27,NNW,348,0.0,2.0,46,0.00,,,0.00,,2014-09-23 20:53:00,
2014-09-23 17:22:00,71.0,47.0,30.26,SE,145,1.0,4.0,43,0.00,,,0.00,,2014-09-23 21:22:00,
2014-09-23 17:54:00,71.0,47.0,30.26,NE,46,0.0,2.0,43,0.00,,,0.00,,2014-09-23 21:54:00,
2014-09-23 18:23:00,70.0,48.0,30.25,NNE,23,1.0,5.0,45,0.00,,,0.00,,2014-09-23 22:23:00,
2014-09-23 18:53:00,69.0,48.0,30.26,North,8,0.0,2.0,47,0.00,,,0.00,,2014-09-23 22:53:00,
2014-09-23 19:13:00,68.0,48.0,30.26,ENE,58,0.0,2.0,48,0.00,,,0.00,,2014-09-23 23:13:00,